This demonstration page uses our WeatherBlox Daily Observations layout. Learn more.

Left ArrowRight Arrow

36.19886, -115.1175

Hourly Observations for March 31, 2017

Temp ( °F °C ) Dew Point ( °F °C ) Humidity (%) Winds ( mph kmh ) Pressure ( in mb ) Visibility ( mi km ) Precip ( " mm )
12:53 am 00:53 Cloudy 46 7.8 33 0.6 61 61 NNW 26 43 29.61 1003 10 16 N/A
1:53 am 01:53 Cloudy 44 6.7 34 1.1 68 68 NNW 25 41 29.61 1003 10 16 N/A
2:53 am 02:53 Cloudy 45 7.2 33 0.6 63 63 NNW 28 44 29.61 1003 10 16 N/A
3:53 am 03:53 Cloudy 45 7.2 35 1.7 68 68 NNW 22 35 29.64 1004 10 16 N/A
4:53 am 04:53 Cloudy 45 7.2 34 1.1 66 66 NNW 23 37 29.65 1004 10 16 N/A
5:53 am 05:53 Cloudy 48 8.9 31 -0.6 52 52 N 17 28 29.66 1004 10 16 N/A
6:53 am 06:53 Partly Cloudy 48 8.9 31 -0.6 52 52 N 21 33 29.68 1005 10 16 N/A
7:53 am 07:53 Cloudy 50 10 31 -0.6 48 48 NNW 21 33 29.70 1006 10 16 N/A
8:53 am 08:53 Cloudy 50 10 32 undefined 50 50 NNW 20 31 29.75 1007 10 16 N/A
9:53 am 09:53 Cloudy 52 11.1 32 undefined 47 47 NNW 14 22 29.76 1008 10 16 N/A
10:53 am 10:53 Cloudy 56 13.3 31 -0.6 39 39 NNW 18 30 29.76 1008 10 16 N/A
11:53 am 11:53 Cloudy 58 14.4 30 -1.1 35 35 NNW 20 31 29.76 1008 10 16 N/A
12:53 pm 12:53 Cloudy 59 15 32 undefined 36 36 NNW 20 31 29.78 1008 10 16 N/A
1:53 pm 13:53 Cloudy 63 17.2 30 -1.1 29 29 NNW 17 28 29.76 1008 10 16 N/A
2:53 pm 14:53 Cloudy 64 17.8 29 -1.7 27 27 N 23 37 29.75 1007 10 16 N/A
3:53 pm 15:53 Cloudy 66 18.9 30 -1.1 26 26 N 21 33 29.75 1008 10 16 N/A
4:53 pm 16:53 Cloudy 65 18.3 31 -0.6 28 28 N 14 22 29.76 1008 10 16 N/A
5:53 pm 17:53 Cloudy 65 18.3 32 undefined 29 29 N 21 33 29.77 1008 10 16 N/A
6:53 pm 18:53 Cloudy 63 17.2 35 1.7 35 35 N N/A 29.80 1009 10 16 N/A
7:53 pm 19:53 Cloudy 62 16.7 35 1.7 37 37 ESE 9 15 29.84 1010 10 16 N/A
8:53 pm 20:53 Cloudy 61 16.1 37 2.8 41 41 ENE 5 7 29.87 1012 10 16 N/A
9:53 pm 21:53 Cloudy 60 15.6 38 3.3 44 44 N N/A 29.89 1012 10 16 N/A
10:53 pm 22:53 Cloudy 62 16.7 34 1.1 35 35 NNW 16 26 29.89 1012 10 16 N/A
11:53 pm 23:53 Cloudy 61 16.1 34 1.1 36 36 NNW 15 24 29.89 1012 10 16 N/A

Powered by AerisWeather